Hourly Weather Rudnevo

Today, 16 April, Friday

Time Temperature Precipitation Wind Pressure Humidity
00:00 +3°C° 0 mm 5 mps 753 mmHg 79%
01:00 +3°C° 0 mm 6 mps 753 mmHg 82%
02:00 +3°C° 0 mm 6 mps 753 mmHg 85%
03:00 +3°C° 0 mm 7 mps 752 mmHg 89%
04:00 +3°C° 0 mm 7 mps 752 mmHg 88%
05:00 +2°C° 0 mm 8 mps 752 mmHg 87%
06:00 +2°C° 0 mm 8 mps 751 mmHg 86%
07:00 +3°C° 0 mm 9 mps 751 mmHg 81%
08:00 +5°C° 0 mm 10 mps 751 mmHg 76%
09:00 +5°C° 0 mm 10 mps 751 mmHg 71%
10:00 +5°C° 0.1 mm 10 mps 751 mmHg 70%
11:00 +6°C° 0.1 mm 11 mps 750 mmHg 70%
12:00 +6°C° 0.1 mm 11 mps 750 mmHg 70%
13:00 +6°C° 0.2 mm 11 mps 749 mmHg 71%
14:00 +6°C° 0.2 mm 11 mps 749 mmHg 73%
15:00 +6°C° 0.2 mm 11 mps 748 mmHg 74%
16:00 +4°C° 0.2 mm 11 mps 748 mmHg 78%
17:00 +5°C° 0.2 mm 10 mps 747 mmHg 83%
18:00 +3°C° 0.2 mm 9 mps 747 mmHg 87%
19:00 +4°C° 0.3 mm 7 mps 748 mmHg 89%
20:00 +3°C° 0.3 mm 5 mps 748 mmHg 92%
21:00 +4°C° 0.3 mm 3 mps 749 mmHg 94%
22:00 +4°C° 0 mm 3 mps 749 mmHg 95%
23:00 +3°C° 0 mm 3 mps 749 mmHg 96%

Tomorrow, 17 April, Saturday

Time Temperature Precipitation Wind Pressure Humidity
00:00 +4°C° 0 mm 2 mps 749 mmHg 96%
01:00 +4°C° 0.1 mm 2 mps 749 mmHg 97%
02:00 +4°C° 0.1 mm 2 mps 749 mmHg 97%
03:00 +4°C° 0.1 mm 2 mps 750 mmHg 97%
04:00 +3°C° 0 mm 2 mps 750 mmHg 96%
05:00 +3°C° 0 mm 2 mps 750 mmHg 96%
06:00 +3°C° 0 mm 2 mps 750 mmHg 95%
07:00 +4°C° 0 mm 2 mps 751 mmHg 87%
08:00 +6°C° 0 mm 2 mps 751 mmHg 80%
09:00 +7°C° 0 mm 3 mps 752 mmHg 72%
10:00 +8°C° 0 mm 2 mps 751 mmHg 66%
11:00 +8°C° 0 mm 2 mps 751 mmHg 60%
12:00 +9°C° 0 mm 2 mps 751 mmHg 53%
13:00 +9°C° 0 mm 2 mps 751 mmHg 52%
14:00 +9°C° 0 mm 2 mps 750 mmHg 51%
15:00 +9°C° 0 mm 2 mps 750 mmHg 50%
16:00 +9°C° 0 mm 2 mps 749 mmHg 51%
17:00 +9°C° 0 mm 1 mps 749 mmHg 53%
18:00 +9°C° 0 mm 1 mps 749 mmHg 55%
19:00 +9°C° 0 mm 1 mps 748 mmHg 56%
20:00 +8°C° 0 mm 1 mps 748 mmHg 56%
21:00 +8°C° 0 mm 1 mps 748 mmHg 57%
22:00 +7°C° 0 mm 2 mps 748 mmHg 56%
23:00 +7°C° 0 mm 3 mps 747 mmHg 55%

Day after tomorrow, 18 April, Sunday

Time Temperature Precipitation Wind Pressure Humidity
00:00 +6°C° 0 mm 4 mps 747 mmHg 54%
01:00 +6°C° 0 mm 5 mps 746 mmHg 54%
02:00 +6°C° 0 mm 5 mps 746 mmHg 55%
03:00 +5°C° 0 mm 6 mps 745 mmHg 56%
04:00 +5°C° 0 mm 7 mps 745 mmHg 52%
05:00 +5°C° 0 mm 8 mps 746 mmHg 48%
06:00 +5°C° 0 mm 8 mps 746 mmHg 44%
07:00 +6°C° 0 mm 9 mps 746 mmHg 46%
08:00 +6°C° 0 mm 10 mps 746 mmHg 48%
09:00 +7°C° 0 mm 11 mps 746 mmHg 51%
10:00 +8°C° 0 mm 10 mps 746 mmHg 47%
11:00 +9°C° 0 mm 10 mps 745 mmHg 44%
12:00 +12°C° 0 mm 9 mps 745 mmHg 40%
13:00 +12°C° 0 mm 9 mps 745 mmHg 39%
14:00 +12°C° 0 mm 8 mps 745 mmHg 38%
15:00 +13°C° 0 mm 8 mps 745 mmHg 36%
16:00 +12°C° 0 mm 7 mps 745 mmHg 38%
17:00 +12°C° 0 mm 7 mps 745 mmHg 41%
18:00 +11°C° 0 mm 6 mps 745 mmHg 43%
19:00 +10°C° 0 mm 5 mps 745 mmHg 45%
20:00 +10°C° 0 mm 5 mps 746 mmHg 47%
21:00 +10°C° 0 mm 4 mps 746 mmHg 49%
22:00 +8°C° 0 mm 4 mps 746 mmHg 51%
23:00 +8°C° 0 mm 4 mps 746 mmHg 54%

19 April, Monday

Time Temperature Precipitation Wind Pressure Humidity
00:00 +8°C° 0 mm 3 mps 746 mmHg 57%
01:00 +7°C° 0 mm 3 mps 746 mmHg 58%
02:00 +7°C° 0 mm 3 mps 746 mmHg 60%
03:00 +7°C° 0 mm 3 mps 746 mmHg 61%
04:00 +5°C° 0 mm 3 mps 746 mmHg 62%
05:00 +6°C° 0 mm 2 mps 746 mmHg 63%
06:00 +6°C° 0 mm 2 mps 746 mmHg 63%
07:00 +8°C° 0 mm 2 mps 746 mmHg 57%
08:00 +10°C° 0 mm 2 mps 746 mmHg 50%
09:00 +12°C° 0 mm 3 mps 746 mmHg 43%
10:00 +13°C° 0 mm 3 mps 746 mmHg 40%
11:00 +14°C° 0 mm 3 mps 746 mmHg 37%
12:00 +16°C° 0 mm 3 mps 745 mmHg 34%
13:00 +15°C° 0 mm 4 mps 745 mmHg 35%
14:00 +15°C° 0 mm 5 mps 745 mmHg 36%
15:00 +14°C° 0 mm 5 mps 745 mmHg 38%
16:00 +13°C° 0 mm 5 mps 745 mmHg 41%
17:00 +12°C° 0 mm 4 mps 745 mmHg 44%
18:00 +11°C° 0 mm 3 mps 745 mmHg 47%
19:00 +10°C° 0 mm 2 mps 745 mmHg 51%
20:00 +9°C° 0 mm 2 mps 746 mmHg 55%
21:00 +9°C° 0 mm 1 mps 746 mmHg 58%
22:00 +9°C° 0 mm 1 mps 746 mmHg 58%
23:00 +9°C° 0 mm 1 mps 747 mmHg 58%

20 April, Tuesday

Time Temperature Precipitation Wind Pressure Humidity
00:00 +8°C° 0 mm 0 mps 747 mmHg 58%
01:00 +9°C° 0 mm 1 mps 747 mmHg 57%
02:00 +9°C° 0 mm 1 mps 748 mmHg 56%
03:00 +9°C° 0 mm 1 mps 748 mmHg 56%
04:00 +8°C° 0 mm 3 mps 749 mmHg 58%
05:00 +7°C° 0 mm 5 mps 750 mmHg 61%
06:00 +6°C° 0 mm 7 mps 751 mmHg 63%
07:00 +6°C° 0 mm 7 mps 752 mmHg 54%
08:00 +7°C° 0 mm 8 mps 753 mmHg 44%
09:00 +7°C° 0 mm 8 mps 754 mmHg 35%
10:00 +9°C° 0 mm 8 mps 754 mmHg 31%
11:00 +10°C° 0 mm 7 mps 754 mmHg 26%
12:00 +11°C° 0 mm 7 mps 754 mmHg 22%
13:00 +13°C° 0 mm 6 mps 754 mmHg 21%
14:00 +14°C° 0 mm 6 mps 754 mmHg 20%
15:00 +14°C° 0 mm 5 mps 754 mmHg 20%
16:00 +14°C° 0 mm 5 mps 754 mmHg 21%
17:00 +14°C° 0 mm 4 mps 754 mmHg 23%
18:00 +14°C° 0 mm 4 mps 754 mmHg 24%
19:00 +13°C° 0 mm 3 mps 755 mmHg 28%
20:00 +11°C° 0 mm 3 mps 756 mmHg 32%
21:00 +9°C° 0 mm 2 mps 756 mmHg 35%
22:00 +9°C° 0 mm 2 mps 756 mmHg 37%
23:00 +9°C° 0 mm 1 mps 757 mmHg 38%

21 April, Wednesday

Time Temperature Precipitation Wind Pressure Humidity
00:00 +9°C° 0 mm 1 mps 757 mmHg 40%
01:00 +8°C° 0 mm 1 mps 757 mmHg 41%
02:00 +8°C° 0 mm 1 mps 757 mmHg 42%
03:00 +7°C° 0 mm 1 mps 758 mmHg 42%
04:00 +7°C° 0 mm 1 mps 758 mmHg 43%
05:00 +7°C° 0 mm 1 mps 758 mmHg 43%
06:00 +7°C° 0 mm 1 mps 758 mmHg 44%
07:00 +9°C° 0 mm 1 mps 758 mmHg 40%
08:00 +11°C° 0 mm 1 mps 758 mmHg 36%
09:00 +13°C° 0 mm 1 mps 758 mmHg 32%
10:00 +13°C° 0 mm 1 mps 758 mmHg 31%
11:00 +14°C° 0 mm 2 mps 758 mmHg 30%
12:00 +15°C° 0 mm 2 mps 757 mmHg 29%
13:00 +14°C° 0 mm 3 mps 757 mmHg 30%
14:00 +13°C° 0 mm 4 mps 756 mmHg 32%
15:00 +13°C° 0 mm 4 mps 756 mmHg 34%
16:00 +12°C° 0 mm 4 mps 756 mmHg 44%
17:00 +11°C° 0 mm 4 mps 756 mmHg 53%
18:00 +8°C° 0 mm 4 mps 756 mmHg 62%
19:00 +8°C° 0 mm 4 mps 756 mmHg 68%
20:00 +7°C° 0 mm 4 mps 756 mmHg 73%
21:00 +6°C° 0 mm 4 mps 756 mmHg 79%
22:00 +7°C° 0 mm 3 mps 756 mmHg 81%
23:00 +7°C° 0 mm 3 mps 756 mmHg 83%
Show more